Regional Weather Roundup
Issued by NWS Dallas/Fort Worth, TX

Home | Current Version | Previous Version | Text Only | Print | Product List | Glossary On
Versions: 1 2 3 4 5 6 7 8 9 10 11 12 13 14 15 16 17 18 19 20 21 22 23 24 25 26 27 28 29 30 31 32 33 34 35 36 37 38 39 40 41 42 43 44 45 46 47 48 49 50
000
ASUS44 KFWD 031115
RWRFWD
NORTH TEXAS HOURLY WEATHER ROUNDUP
NATIONAL WEATHER SERVICE FORT WORTH TX
600 AM CDT TUE AUG 03 2021

NOTE: "FAIR" INDICATES FEW OR NO CLOUDS BELOW 12,000 FEET WITH NO
SIGNIFICANT WEATHER AND/OR OBSTRUCTIONS TO VISIBILITY.

TXZ118-119-031200-
DALLAS/FORT WORTH METROPLEX

CITY           SKY/WX    TMP DP  RH WIND       PRES   REMARKS
DFW AIRPORT    PTCLDY    75  71  87 N5        29.99S
DALLAS LOVE    PTCLDY    74  71  91 N5        30.00S
FTW MEACHAM    PTCLDY    70  66  87 N6        30.00F
DAL-EXECUTIVE  CLEAR     72  70  93 N3        30.00S
FTW-ALLIANCE   PTCLDY    71  64  78 N3        30.01S
FTW-NAS-JRB    MOCLDY    75  67  76 N5        30.01F
FTW-SPINKS     CLEAR     70  66  86 CALM      30.02S
ARLINGTON      CLEAR     74  70  87 NW5       30.00F
GRAND PRAIRIE  CLEAR     74  74 100 N3        30.02S
ADDISON        CLEAR     75  72  88 NE3       30.01F
MESQUITE       CLEAR     71  71 100 CALM      30.00S
LANCASTER      CLEAR     70  69  97 CALM      30.01S FOG
$$

TXZ091>094-102>105-117-120-121-131>134-031200-
NORTH CENTRAL TEXAS

CITY           SKY/WX    TMP DP  RH WIND       PRES   REMARKS
SHRMAN/DENISON PTCLDY    70  68  94 CALM      30.04S
GAINESVILLE    PTCLDY    67  64  87 N5        30.05S
BOWIE          PTCLDY    67  63  86 N5        30.05S
BRIDGEPORT     FOG       66  65  96 CALM      30.05S VSB 3/4
DECATUR        MOCLDY    70  63  78 CALM      30.03S
DENTON         CLEAR     67  65  93 N3        30.02S
MCKINNEY       CLEAR     71  69  93 N3        30.01S FOG
BONHAM         CLEAR     68  67  98 CALM      30.02S FOG
GREENVILLE     CLEAR     69  69  99 N3        30.01S FOG
ROCKWALL       CLEAR     71  71 100 NE3       30.01S
TERRELL        CLEAR     72  72 100 N6        30.00S FOG
WAXAHACHIE     CLEAR     71  71 100 CALM      30.01S FOG
CLEBURNE       CLEAR     70  68  94 N7        30.01F
GRANBURY       CLEAR     69  64  85 W6        30.03S
$$

TXZ083>090-098>101-113>116-127>130-139>142-154-155-031200-
WESTERN NORTH TEXAS

CITY           SKY/WX    TMP DP  RH WIND       PRES   REMARKS
WICHITA FALLS  CLEAR     64  61  90 N7        30.06R
WF-KICKAPOO    CLEAR     67  61  79 CALM      30.07S
VERNON         CLEAR     64  62  93 N6        30.09S
ABILENE        CLEAR     61  56  83 S3        30.09F
ABILENE-DYESS  CLEAR     62  55  75 CALM      30.08S
BRECKENRIDGE   CLEAR     63  57  81 CALM      30.06S HAZE
CISCO          CLOUDY    63  57  82 NW6       30.06S
EASTLAND       CLEAR     62  59  90 CALM      30.06F
RANGER         CLEAR     64  58  82 NW3       30.06S
MINERAL WELLS  CLEAR     67  63  87 W3        30.02S
STEPHENVILLE   CLEAR     67  61  79 NW3       30.06S
COMANCHE       CLEAR     67  60  78 NW7       30.05F
COLEMAN        CLEAR     65  56  73 NW5       30.07S
BRADY            N/A    N/A N/A N/A MISG        N/A
SAN SABA       MOSUNNY   67  65  91 W3        30.05S
$$

TXZ143>147-156>162-174-175-031200-
CENTRAL TEXAS

CITY           SKY/WX    TMP DP  RH WIND       PRES   REMARKS
WACO           CLOUDY    75  73  93 N6        29.99R
WACO-MCGREGOR  MOCLDY    74  73  97 NW3       30.00S
HILLSBORO      CLOUDY    74  74 100 CALM      29.99F
CORSICANA      CLOUDY    75  74  96 N3        29.99S FOG
MEXIA          CLOUDY    76  75  98 NW6       29.98R
HEARNE         CLOUDY    76  75  95 N3        29.98S FOG
CAMERON        CLOUDY    76  74  95 N3        29.97S
TEMPLE         CLOUDY    74  74 100 N7        30.00S
KILLEEN        PTCLDY    71  68  90 NW5       29.99S
KILLEEN-SKYLRK CLOUDY    73  70  90 N7        30.01R
FORT HOOD      MOCLDY    72  69  90 N7        30.00S
GATESVILLE     CLEAR     70  66  88 CALM      30.03R
HAMILTON         N/A     68  64  85 NW6       30.04S
$$

TXZ095>097-106>112-122>126-135>138-148>153-164>167-031200-
EAST TEXAS

CITY           SKY/WX    TMP DP  RH WIND       PRES   REMARKS
PARIS          CLEAR     70  68  93 CALM      30.02S
SULPHUR SPRNGS CLEAR     71  71 100 NE3       30.03S
MOUNT PLEASANT CLEAR     69  69  98 N5        29.99F FOG
GILMER         CLEAR     70  69  98 CALM      29.99S
MINEOLA        CLEAR     72  70  94 CALM      29.99F FOG
TYLER          CLEAR     74  72  93 N3        29.98S
LONGVIEW       CLOUDY    73  70  90 N3        29.97S
MARSHALL       PTCLDY    70  68  94 N3        30.00S
ATHENS           N/A     73  72  94 CALM      29.97R
PALESTINE      MOCLDY    75  75 100 NE3       29.97S FOG
HENDERSON      CLOUDY    73  72  95 N3        29.98S
CENTER         CLOUDY    77  75  94 NE3       29.97S FOG
NACOGDOCHES    CLOUDY    74  73  97 N5        29.97R FOG
LUFKIN         CLOUDY    75  74  96 NW3       29.95S
$$

SUPPLEMENTAL OBSERVATIONS (NWS FORT WORTH AREA)

CITY           SKY/WX    TMP DP  RH WIND       PRES   REMARKS
CADDO GRASSLND   N/A     68  64  88 CALM        N/A
LBJ GRASSLAND    N/A     68  64  88 N3          N/A
GRANBURY         N/A     66  63  88 W3          N/A
MCGREGOR         N/A     73  72  94 N3          N/A
$$

SUPPLEMENTAL OBSERVATIONS (NWS NORMAN AREA)

CITY           SKY/WX    TMP DP  RH WIND       PRES   REMARKS
GOODLETT         N/A     63  57  79 NW8       30.10S
ODELL            N/A     59  58  96 CALM      30.11R
CROWELL          N/A     66  59  80 NW7       30.11S
KNOX CITY        N/A     62  61  96 CALM      30.09S
SEYMOUR          N/A     60  58  91 CALM      30.09S
MILLERS CREEK    N/A     63  54  72 SW1         N/A
$$

SUPPLEMENTAL OBSERVATIONS (NWS SAN ANGELO AREA)

CITY           SKY/WX    TMP DP  RH WIND       PRES   REMARKS
WEINERT          N/A     64  62  93 CALM      30.10S
HASKELL          N/A     63  60  90 N6        30.09S
THROCKMORTON     N/A     66  60  79 NW3       30.07F
STAMFORD         N/A     64  61  91 NW3       30.10S
CLYDE            N/A     59  57  92 CALM      30.11S
HAMBY            N/A     55  52  88 SE1         N/A
IVIE RESERVOIR   N/A     70  57  64 NE3         N/A
COLORADO BEND    N/A     68  61  77 W2          N/A
$$

SUPPLEMENTAL OBSERVATIONS (NWS SHREVEPORT AREA)

CITY           SKY/WX    TMP DP  RH WIND       PRES   REMARKS
TEXARKANA        N/A     70  68  94 N2          N/A
CADDO LAKE       N/A     72  70  94 CALM        N/A
LUFKIN           N/A     73  72  94 MISG        N/A
N SABINE NF      N/A     75  73  94 MISG        N/A
$$

SUPPLEMENTAL OBSERVATIONS ARE A COLLECTION OF AUTOMATED INSTRUMENTS
THAT ARE MAINTAINED BY A VARIETY OF FEDERAL AND STATE AGENCIES.
CERTAIN ELEMENTS...SUCH AS HUMIDITY VALUES AND SUSTAINED WIND
SPEEDS...MAY BE APPROXIMATED.




USA.gov is the U.S. government's official web portal to all federal, state and local government web resources and services.